Location: Central Falls
(41.8900°N, 71.3929°W)
Time: 14:12:57
(UTC+00:00)

Courier 1B Rocket - Pass Details

Date: 11 December 2023
Orbit: 920 x 1202 km, 28.2° (Epoch: 01 March)

Event Time Altitude Azimuth Distance (km) Brightness Sun altitude
Rises 15:21:11 0° 239° (WSW) 3,928 8.3 22.7°
Reaches altitude 10° 15:24:33 10° 227° (SW) 2,921 7.9 22.9°
Maximum altitude 15:30:07 25° 175° (S) 1,964 8.9 23.2°
Drops below altitude 10° 15:35:23 10° 123° (ESE) 2,758 8.3 23.5°
Sets 15:38:27 0° 111° (ESE) 3,663 8.5 23.6°
